Change the Weather History Date:

Sunday, October 10, 2010

  Actual Average Record
Temperature  
Mean Temperature 60 °F -  
Max Temperature 78 °F 59 °F 78 °F (2010)
Min Temperature 43 °F 28 °F 19 °F (2000)
Degree Days  
Heating Degree Days 4    
Growing Degree Days 10 (Base 50)    
Moisture  
Dew Point 49 °F    
Average Humidity 75    
Maximum Humidity 97    
Minimum Humidity 42    
Precipitation  
Precipitation 0.00 in - - ()
Sea Level Pressure  
Sea Level Pressure 29.92 in    
Wind  
Wind Speed 1 mph (NE)    
Max Wind Speed 5 mph    
Max Gust Speed -    
Visibility 9 miles    
Events      
Averages and records for this station are not official NWS values.
T = Trace of Precipitation, MM = Missing Value Source: NWS Daily Summary

Daily Weather History Graph

Daily Weather History Graph

Search for Another Location

Airport or City:

Trip Planner

Search our weather history database for the weather conditions in past years. The results will help you decide how hot, cold, wet, or windy it might be!

Date:

Astronomy

Oct. 10, 2010 Rise Set
Actual Time 7:15 AM CDT 6:28 PM CDT
Civil Twilight 6:46 AM CDT 6:58 PM CDT
Nautical Twilight 6:11 AM CDT 7:33 PM CDT
Astronomical Twilight 5:36 AM CDT 8:07 PM CDT
Moon 11:04 AM CDT (10/10) 7:55 PM CDT (10/10)
Length of Visible Light 12h 12m
Length of Day
11h 12m
Waxing Crescent, 12% of the Moon is Illuminated
Oct 10
Waxing Crescent
Oct 14
First Quarter
Oct 22
Full
Oct 30
Last Quarter
Nov 5
New

Hourly Weather History & Observations

Time (CDT) Temp. Dew Point Humidity Pressure Visibility Wind Dir Wind Speed Gust Speed Precip Events Conditions
12:53 AM 48.0 °F 45.0 °F 89% 29.94 in 10.0 mi Calm Calm - N/A   Clear
1:53 AM 50.0 °F 46.9 °F 89% 29.96 in 10.0 mi Calm Calm - N/A   Clear
2:53 AM 46.9 °F 45.0 °F 93% 29.95 in 10.0 mi Calm Calm - N/A   Clear
3:53 AM 48.9 °F 46.9 °F 93% 29.95 in 10.0 mi Calm Calm - N/A   Clear
4:53 AM 44.1 °F 42.1 °F 93% 29.95 in 10.0 mi Calm Calm - N/A   Clear
5:05 AM 44.6 °F 42.8 °F 93% 29.95 in 1.8 mi Calm Calm - N/A   Clear
5:15 AM 44.6 °F 42.8 °F 93% 29.95 in 3.0 mi Calm Calm - N/A   Clear
5:53 AM 44.1 °F 43.0 °F 96% 29.96 in 9.0 mi Calm Calm - N/A   Clear
6:53 AM 43.0 °F 42.1 °F 97% 29.97 in 10.0 mi Calm Calm - N/A   Clear
7:53 AM 44.1 °F 43.0 °F 96% 29.96 in 9.0 mi Calm Calm - N/A   Clear
8:53 AM 52.0 °F 50.0 °F 93% 29.95 in 10.0 mi Calm Calm - N/A   Clear
9:53 AM 61.0 °F 53.1 °F 75% 29.94 in 10.0 mi Calm Calm - N/A   Clear
10:53 AM 66.9 °F 53.1 °F 61% 29.94 in 10.0 mi NE 3.5 mph - N/A   Clear
11:53 AM 72.0 °F 51.1 °F 48% 29.92 in 10.0 mi ENE 4.6 mph - N/A   Clear
12:53 PM 73.9 °F 52.0 °F 46% 29.91 in 10.0 mi ESE 4.6 mph - N/A   Clear
1:53 PM 78.1 °F 53.1 °F 42% 29.88 in 10.0 mi Calm Calm - N/A   Clear
2:53 PM 75.9 °F 52.0 °F 43% 29.87 in 10.0 mi SW 3.5 mph - N/A   Clear
3:53 PM 75.9 °F 53.1 °F 45% 29.86 in 10.0 mi Calm Calm - N/A   Clear
4:53 PM 75.9 °F 52.0 °F 43% 29.86 in 10.0 mi ENE 4.6 mph - N/A   Clear
5:53 PM 71.1 °F 51.1 °F 49% 29.87 in 10.0 mi NNE 3.5 mph - N/A   Partly Cloudy
6:53 PM 62.1 °F 52.0 °F 70% 29.88 in 10.0 mi Calm Calm - N/A   Clear
7:53 PM 61.0 °F 51.1 °F 70% 29.89 in 10.0 mi North 3.5 mph - N/A   Clear
8:53 PM 57.9 °F 51.1 °F 78% 29.89 in 10.0 mi NNE 3.5 mph - N/A   Clear
9:53 PM 55.9 °F 50.0 °F 80% 29.88 in 10.0 mi Calm Calm - N/A   Mostly Cloudy
10:53 PM 55.9 °F 48.9 °F 77% 29.87 in 10.0 mi Calm Calm - N/A   Clear
11:53 PM 52.0 °F 48.0 °F 86% 29.87 in 10.0 mi Calm Calm - N/A   Clear